Location: *
(14.3000°N, 84.7000°E)
Time: 01:32:05
(UTC+00:00)

Daily predictions for brighter satellites

Satellite Brightness Start Highest point End
(mag) Time Altitude Azimuth Time Altitude Azimuth Time Altitude Azimuth
USA 32 4.0 00:01:05 10° N 00:06:19 87° W 00:11:34 10° S
Cosmos 158 Rocket 4.4 00:03:26 10° SW 00:07:46 32° WNW 00:12:07 10° NNW
Cosmos 2228 4.2 00:04:41 10° SW 00:08:08 23° W 00:11:37 10° NNW
SL-16 R/B 3.1 00:03:57 10° SW 00:08:35 26° WNW 00:13:14 10° NNW
Lacrosse 5 3.8 00:14:19 10° NW 00:14:45 10° NW 00:15:13 10° NW
Cosmos 2360 Rocket 2.2 00:09:15 10° SSW 00:14:51 68° WNW 00:20:29 10° N
Hubble Space Telescope 2.9 00:11:40 10° SSW 00:15:08 26° SSE 00:18:36 10° E
ALOS 3.5 00:12:50 10° NNW 00:16:10 20° WNW 00:19:31 10° WSW
Cosmos 1726 3.9 00:14:42 10° WSW 00:16:18 12° W 00:17:53 10° WNW
STARLINK-46 3.3 00:14:36 10° NNW 00:16:29 33° NE 00:18:23 10° ESE
Cosmos 2219 Rocket 4.3 00:15:29 10° SSE 00:20:27 33° ESE 00:25:25 10° NE
Delta 128 4.0 00:16:58 10° NW 00:21:24 59° NNE 00:26:14 10° ESE
BREEZE-M DEB (TANK) 2.9 00:16:50 10° NNW 00:21:38 42° NE 00:23:52 10° ESE
USA 238 DEB 4.0 00:16:26 10° NNW 00:23:52 86° ENE 00:31:23 10° SSE
USA 238 4.0 00:16:33 10° NNW 00:23:58 86° ENE 00:31:30 10° SSE
Cosmos 2237 4.4 00:21:07 10° SSW 00:26:41 53° WNW 00:32:13 10° N
SL-8 Rocket 4.0 00:27:26 10° NNW 00:33:27 60° W 00:39:29 10° S
